Regional Weather Roundup
Issued by NWS Green Bay, WI

Home | Current Version | Previous Version | Text Only | Print | Product List | Glossary On
Versions: 1 2 3 4 5 6 7 8 9 10 11 12 13 14 15 16 17 18 19 20 21 22 23 24 25 26 27 28 29 30 31 32 33 34 35 36 37 38 39 40 41 42 43 44 45 46 47 48 49 50
000
ASUS43 KGRB 270459
RWRGRB

NORTH-CENTRAL AND NORTHEAST WISCONSIN REGIONAL WEATHER ROUNDUP
NATIONAL WEATHER SERVICE GREEN BAY WI
1200 AM CDT WED AUG 27 2014

WIZ005-009-010>012-018-019-270600-
NORTH CENTRAL WISCONSIN

CITY           SKY/WX    TMP DP  RH WIND       PRES   REMARKS
IRONWOOD       NOT AVBL
MANITOWISH WTR NOT AVBL
ARBOR VITAE    NOT AVBL
EAGLE RIVER    NOT AVBL
LAND O LAKES   NOT AVBL
RHINELANDER    MOCLDY    54  52  93 CALM      30.18R
PHILLIPS       NOT AVBL
ANTIGO         NOT AVBL
TOMAHAWK       NOT AVBL
MERRILL        NOT AVBL
$$

WIZ013-073-270600-
NORTHEAST WISCONSIN

CITY           SKY/WX    TMP DP  RH WIND       PRES   REMARKS
IRON MOUNTAIN  CLEAR     51  48  89 CALM      30.14R
MARINETTE      CLEAR     57  52  82 N5        30.13R
$$

WIZ017-030-035>037-045-270600-
CENTRAL WISCONSIN

CITY           SKY/WX    TMP DP  RH WIND       PRES   REMARKS
MEDFORD        NOT AVBL
WAUSAU         MOCLDY    59  55  87 W5        30.15R
MOSINEE        NOT AVBL
MARSHFIELD     MOCLDY    59  55  87 NW6       30.16R
WISC RAPIDS    CLOUDY    61  56  83 CALM      30.17R
STEVENS POINT  NOT AVBL
WAUPACA        NOT AVBL
SHAWANO        MOCLDY    62  56  81 N6        30.14R
CLINTONVILLE   NOT AVBL
$$

WIZ038-039-048-051-270600-
FOX VALLEY

CITY           SKY/WX    TMP DP  RH WIND       PRES   REMARKS
NWS GREEN BAY  PTCLDY    59  58  96 W5        30.13R
APPLETON       NOT AVBL
OSHKOSH        MOCLDY    64  57  78 W5        30.13S
FOND DU LAC    MOCLDY    63  56  78 W5        30.14R
$$

WIZ022-050-052-270600-
EAST CENTRAL WISCONSIN

CITY           SKY/WX    TMP DP  RH WIND       PRES   REMARKS
STURGEON BAY   CLEAR     63  59  88 N10G17    30.12S
MANITOWOC      NOT AVBL
SHEBOYGAN      PTCLDY    59  57  93 CALM      30.13R
$$

LMZ563-521-522-541>543-270600-
LAKESHORE

STATION/POSITION TIME  TEMP    WIND        PRES    VSBY  WAVE
                       AIR SEA DIR/SP/G                  HT/PER
                 (UTC) (F)     (DEG/KT/KT) (MB)    (MI)  (FT/S)
SHEBOYGAN LKSHOR 0400   67 66  320/  5/  6 1019.9R
KEWAUNEE LKSHORE 0400   62     310/  2/  3 1018.6F
NORTHPORT PIER   0400   62      30/  7/ 11 1020.3R
N MID LAKE BUOY  0400   62 66   10/ 16/ 19 1019.7R         1
S GREEN BAY BUOY 0400   69     VRB 14      1020.6R
CHAMBERS ISLAND  0400   64     360/ 20/ 24 1020.0R
MENOMINEE LKSHOR 0400   63      10/ 18/ 21 1020.7R
$$



USA.gov is the U.S. government's official web portal to all federal, state and local government web resources and services.